COSMOS 1275 DEB, 42199

Orbit data source: Space-Track

COSMOS 1275 DEB, 42199 is space debris in LEO originally from a launch on Thu, 04 Jun 1981 UTC launched from the Plesetsk Missile And Space Complex (PKMTR). Debris objects in space refer to the collection of defunct objects orbiting the Earth. Examples of debris include non-operational satellites, rocket bodies, and fragments generated from explosions, collisions, or faulty payload assembly.

Loading next visibility...
Identifier
42199, 1981-053TP
Orbit
LEO
Country
Flag of CISCIS
Related business
Manufacturer
Unknown
Mission
Spacecraft
Bus & Motor
Unknown
Mass
Unknown
Launch date (UTC)
1981-06-04 (45 years ago)
Launch vehicle
Unknown
Launch site
Plesetsk Missile And Space Complex (PKMTR)
Object type
Payload
Rocket body
Debris
Shape & HBR
Unknown shape, 0.1 m
Radar Cross Section
Small (<0.1 m²)

Expand to show TLE details & history
Last TLE update: 3 days ago

TLE from 3 days ago
0 COSMOS 1275 DEB
1 42199U 81053TP  26234.09550656  .00000493  00000-0  36436-3 0  9996
2 42199  82.9507   7.2615 0037973 340.5211  19.4502 13.93224602646755
Epoch: 2026-08-22T02:17Z
TLE epoch observation values (Epoch: 2026-08-22T02:17:31.766Z)
Latitude
-0.00001°
Longitude
2.46831°
Altitude
894.162 km
Speed
7.418 km/s
True Right ascension
00h 29m 02s
True Declination
0° 00' 00"
Sunlit
Object was in full shadow at epoch
Visualization orbit readout
Latitude
Unknown
Longitude
Unknown
Altitude
Unknown
Speed
Unknown
Apparent Right ascension
Unknown
Apparent Declination
Unknown
Sunlit
N/A
Visualization observer readout
Local Sidereal Time
15:28:36
Azimuth
Unknown
Elevation
Unknown
Doppler factor
Unknown
Orbital elements
Apogee altitude
942.168 km
Perigee altitude
886.783 km
Semi-major axis
7,292.612 km
Eccentricity
0.0038
Inclination
82.9507°
RAAN
7.2615°
Arg. of periapsis
340.5211°
True anomaly
19.59575°
Mean anomaly
19.4502°
Eccentric anomaly
19.52291°
Mean motion
3.48513 °/min
Orbital period
103.3 mins
BSTAR
0.00036436
Loading maneuver chart data...
Computing Atmospheric mass density...
Loading historical data...
Loading historical data...
Loading historical data...
Loading historical data...
Loading historical data...
Loading historical data...
Loading historical data...

Documentation

Showing up to 5 results
|